Home > Weather > Provincetown > Past weeks

Flag for USA Past Weather in Provincetown, Massachusetts, USA — Yesterday and Last 2 Weeks

Now
76 °F

Sunny.


Feels Like: 77 °F
Forecast: 68 / 84 °F
Wind: 8 mph from Southwest

Location: Provincetown Weather Reporting Station

Current Time: Jul 23, 2016 at 9:20:04 AM

Latest Report: Jul 23, 2016 at 8:56 AM


Visibility: 9 mi

Pressure: 29.76 "Hg

Humidity: 82%

Dew Point: 70 °F

Location of ProvincetownLocation

Past Weather in Provincetown — Graph

°F

Provincetown Temperature Yesterday

Maximum temperature yesterday: 81 °F (at 2:56 PM)
Minimum temperature yesterday: 70 °F (at 12:56 AM)
Average temperature yesterday: 74 °F

High & Low Weather Summary for the Past Weeks

 TemperatureHumidityPressure
High89 °F (Jul 15, 12:56 PM)100% (Jul 10, 3:56 AM)30.21 "Hg (Jul 10, 3:56 AM)
Low51 °F (Jul 11, 4:56 AM)38% (Jul 21, 1:56 PM)29.74 "Hg (Jul 23, 4:56 AM)
Average70 °F82%29.98 "Hg
* Reported Jul 8 7:56 AM — Jul 23 7:56 AM, Provincetown, Weather by CustomWeather, © 2016

Note: Actual official high and low records may vary slightly from our data, if they occured in-between our weather recording intervals... More about our weather records

Advertising

Provincetown Weather History for the Previous 24 Hours

Scroll right to see more
 ConditionsComfort  
Time TempWeatherWind HumidityBarometerVisibility
7:56 AM
Sat, Jul 23
74 °FSunny.10 mph88%29.76 "Hg8 mi
6:56 AM71 °FSunny.12 mph93%29.77 "Hg9 mi
5:56 AM69 °FClear.8 mph93%29.75 "Hg10 mi
4:56 AM70 °FClear.8 mph93%29.74 "Hg10 mi
3:56 AM71 °FClear.15 mph87%29.75 "Hg10 mi
2:56 AM72 °FClear.N/A84%29.76 "Hg10 mi
1:56 AM72 °FPartly cloudy.13 mph91%29.75 "Hg10 mi
12:56 AM71 °FClear.13 mph93%29.75 "Hg8 mi
11:56 PM
Fri, Jul 22
71 °FClear.13 mph93%29.75 "Hg8 mi
10:56 PM73 °FThundershowers. Passing clouds.18 mph79%29.77 "Hg10 mi
9:56 PM72 °FThundershowers. Passing clouds.20 mph91%29.77 "Hg10 mi
8:56 PM72 °FPassing clouds.16 mph93%29.77 "Hg10 mi
7:56 PM74 °FSunny.22 mph88%29.76 "Hg10 mi
6:56 PM76 °FSunny.25 mph82%29.75 "Hg10 mi
5:56 PM77 °FSunny.21 mph82%29.76 "Hg10 mi
4:56 PM79 °FSunny.22 mph77%29.77 "Hg10 mi
3:56 PM80 °FSunny.22 mph74%29.78 "Hg10 mi
2:56 PM81 °FSunny.22 mph72%29.79 "Hg10 mi
1:56 PM80 °FSunny.20 mph71%29.80 "Hg10 mi
12:56 PM80 °FSunny.20 mph71%29.83 "Hg10 mi
11:56 AM80 °FSunny.22 mph71%29.84 "Hg10 mi
Weather by CustomWeather, © 2016

See weather overviewHow to use our weather pages